Content
SEND FEEDBACK

Mexico Flag

SERGIO BUTRÓN CASAS, QUINTANA ROO


Home > North America > Mexico > Quintana Roo
Elevation: 32 meters     Latitude: 18 30N     Longitude: 088 34W

WEATHER
 
SELECT A DAY
Number of Records: 136,932;   Date Range: 1/1/95 - 3/22/16
 
SHARE

PRINT THIS DATA

[ ← Previous Day ]
WEATHER ALMANAC - 26 JANUARY, 2014
[ Next Day → ]
[ °F ]   °C
Weather ElementAverageHighLow
Temperature24.6 °C30 °C (2:45 pm)17.8 °C (5:50 am)
Dewpoint19.4 °C23 °C (12:40 pm)12 °C (7:00 am)
Humidity71.4 %94 % (5:50 am)42 % (11:50 am)
Barometer1015.6 hPa1018.6 hPa (8:50 am)1013.2 hPa (3:40 pm)
Wind Speed6.4 km/h18.5 km/h (4:44 pm)
Weather ElementAverage
Visibility10.5 km
Wind DirectionE (85.5 °)

Weather ElementTotal
Precipitation---
Cooling Degree Days5.6 (Base 18.3)
Growing Degree Days13.9 (Base 10)
Averaged from 22 records on 26 January, 2014
WEATHER CONDITIONS BREAKOUT
WIND DIRECTION BREAKOUT
WEATHER BY HOUR - 26 JANUARY, 2014
[ °F ]   °C
Local TimeTemperatureDewpointHumidityBarometerVisibilityWind DirectionWind SpeedGust SpeedPrecipitationEventsConditions
5:50 AM17.8 °C17.2 °C94 %1017.6 hPa8 kmWNW (290°)3.5 km/hScattered Clouds
7:00 AM18 °C12 °C68 %1017.9 hPa11.3 kmCalmScattered Clouds
7:40 AM19 °C13 °C68 %1017.6 hPa11.3 kmCalmScattered Clouds
8:40 AM21 °C15 °C68 %1018.3 hPa11.3 kmCalmClear
8:50 AM22.8 °C18.3 °C70 %1018.6 hPa9.7 kmNW (320°)7.2 km/hScattered Clouds
9:40 AM23 °C18 °C73 %1017.9 hPa11.3 kmCalmClear
10:40 AM26 °C21 °C74 %1017.6 hPa11.3 kmCalmPartly Cloudy
11:40 AM26 °C21 °C74 %1016.9 hPa11.3 kmCalmPartly Cloudy
11:50 AM28.9 °C17.8 °C42 %1016.9 hPa9.7 kmEast (90°)7.2 km/hScattered Clouds
12:40 PM28 °C23 °C74 %1015.2 hPa11.3 kmCalmScattered Clouds
1:40 PM28 °C23 °C74 %1014.2 hPa11.3 kmCalmScattered Clouds
2:40 PM27 °C22 °C74 %1015.2 hPa11.3 kmESE (120°)14.8 km/hScattered Clouds
2:45 PM30 °C18.9 °C42 %1013.9 hPa9.7 kmEast (90°)10.8 km/hScattered Clouds
3:40 PM27 °C22 °C74 %1013.2 hPa11.3 kmCalmScattered Clouds
4:44 PM27 °C22 °C74 %1013.2 hPa11.3 kmESE (120°)18.5 km/hScattered Clouds
5:42 PM25 °C20 °C74 %1014.2 hPa11.3 kmESE (120°)14.8 km/hMostly Cloudy
5:45 PM25.6 °C21.7 °C73 %1014.6 hPa9.7 kmEast (90°)10.8 km/hPartly Cloudy
6:40 PM25 °C20 °C74 %1013.9 hPa11.3 kmESE (120°)14.8 km/hMostly Cloudy
7:44 PM25 °C20 °C74 %1014.2 hPa11.3 kmESE (120°)14.8 km/hScattered Clouds
8:40 PM24 °C19 °C73 %1014.6 hPa11.3 kmESE (120°)14.8 km/hScattered Clouds
8:50 PM24.4 °C21.1 °C75 %1015.2 hPa8 kmEast (80°)7.2 km/h
11:50 PM22.2 °C20 °C85 %1014.6 hPa8 kmSSW (200°)3.5 km/hScattered Clouds
Hourly data recorded from MMCM, located 0 kilometers away from Sergio Butrón Casas, Quintana Roo




STORIES FROM OUR PARTNERS